Flag for Honduras Weather past 2 weeks in Tegucigalpa, Honduras

Now
66 °F

Partly sunny.


Feels Like: 66 °F
Forecast: 68 / 91 °F
Wind: No wind

Location: Tegucigalpa Airport

Current Time: Apr 21, 2015 at 7:08:21 AM

Latest Report: Apr 21, 2015 at 6:00 AM


Visibility: 4 mi

Pressure: 30.04 "Hg

Humidity: 94%

Dew point: 64 °F

Location of TegucigalpaLocation

Historic Weather in Tegucigalpa — Graph

°F

Tegucigalpa temperature yesterday

Maximum temperature yesterday: 90 °F (at 1:00 PM)
Minimum temperature yesterday: 68 °F (at 5:00 AM)
Average temperature yesterday: 78 °F

Past Weeks' High & Low Weather Summary

 TemperatureHumidityPressure
High91 °F (Apr 14, 2:00 PM)100% (Apr 10, 5:00 AM)30.15 "Hg (Apr 10, 5:00 AM)
Low61 °F (Apr 10, 5:00 AM)26% (Apr 18, 1:00 PM)29.92 "Hg (Apr 18, 4:00 PM)
Average76 °F60%30.06 "Hg
* Reported Apr 6 6:00 AM — Apr 21 6:00 AM, Tegucigalpa, Weather by CustomWeather, © 2015

Note: Actual official high and low records may vary slightly from our data, if they occured in-between our weather recording intervals... More about our weather records

Advertising

Tegucigalpa weather history for previous 24 hours

 ConditionsComfort  
Time TempWeatherWind HumidityBarometerVisibility
6:00 AM
Tue, Apr 21
66 °FPartly sunny.No wind94%30.04 "Hg4 mi
5:00 AM66 °FPassing clouds.No wind94%30.04 "Hg4 mi
4:00 AM66 °FPassing clouds.No wind94%30.04 "Hg4 mi
3:00 AM66 °FPassing clouds.No wind94%30.04 "Hg4 mi
2:00 AM66 °FPassing clouds.3 mph94%30.04 "Hg4 mi
1:00 AM68 °FMild.3 mph94%30.04 "HgN/A
12:00 AM70 °FPassing clouds.5 mph88%30.04 "Hg4 mi
11:00 PM
Mon, Apr 20
72 °FPassing clouds.5 mph83%30.04 "Hg5 mi
10:00 PM73 °FClear.5 mph78%30.04 "Hg5 mi
9:00 PM75 °FPassing clouds.6 mph74%30.04 "Hg5 mi
8:00 PM77 °FPassing clouds.7 mph65%30.01 "Hg4 mi
7:00 PM79 °FPassing clouds.9 mph65%29.98 "Hg4 mi
6:00 PM81 °FScattered clouds.9 mph58%29.95 "HgN/A
5:00 PM84 °FScattered clouds.12 mph51%29.92 "Hg4 mi
4:00 PM88 °FPartly sunny.9 mph40%29.92 "Hg4 mi
3:00 PM90 °FPartly sunny.7 mph38%29.92 "Hg4 mi
2:00 PM90 °FScattered clouds.9 mph38%29.95 "Hg4 mi
1:00 PM90 °FPartly sunny.3 mph38%29.98 "Hg4 mi
12:00 PM84 °FPartly sunny.7 mph45%30.01 "Hg4 mi
11:00 AM84 °FScattered clouds.5 mph45%30.04 "Hg5 mi
10:00 AM84 °FScattered clouds.6 mph51%30.04 "Hg5 mi
9:00 AM81 °FScattered clouds.3 mph58%30.07 "Hg5 mi
8:00 AM79 °FPartly sunny.3 mph65%30.04 "HgN/A
7:00 AM72 °FPartly sunny.2 mph83%30.04 "Hg5 mi
Weather by CustomWeather, © 2015

See weather overviewHow to use our weather pages